Синин

Китай     36°38′21″N   101°44′33″E
темп.,
°C
ветер,
м/с
пор.,
м/с
влажн.,
%
обл.,
%
осадки,
мм/ч
давл.,
гПа
погр.,
м
13 апреля, вт
вт1323:00+5юв38584 0.0 1017728
02:00+4ююз236235 0.0 1019155
05:00+2зюз117212 0.0 101929
08:00+2юз117330 0.0 1020212
11:00+6ююв225782 0.0 1018996
14:00+11ююв563564 0.1 10131575
17:00+13юз6101983 0.0 10092993
20:00+3вюв8116584 0.0 1018678
14 апреля, ср
ср1423:00+2ююв4871100 0.0 1023757
02:00+1юв2469100 0.1 1021635
05:00+1в1172100 0.0 1019355
08:00+1ююв1170100 0.0 1019390
11:00+5в1151100 0.0 1016641
14:00+13з111513100 0.0 10074602
17:00+14зсз12151381 0.0 10044443
20:00+9юз493020 0.0 1008565
15 апреля, чт
чт1523:00+6ссв364686 0.0 1014217
02:00+3юв335795 0.1 1017563
05:00+2зюз126282 0.0 101977
08:00+2сз115299 0.0 1022298
11:00+5сз01260 0.0 10211328
14:00+9вюв461717 0.0 10152287
17:00+12зсз510775 0.0 10114639
20:00+7вюв672816 0.0 1015419
16 апреля, пт
пт1623:00+4юв48390 0.0 1020725
02:00
05:00+2с11450 0.0 102114
08:00+2зсз00444 0.0 1022155
11:00+5ююв2134100 0.0 1021971
14:00+10юв322288 0.0 10161282
17:00+12юв651899 0.0 10111090
20:00+10юв362676 0.0 1013403
17 апреля, сб
сб1723:00+7юв482794 0.0 1017569
02:00+4сз11530 0.0 101922
05:00+3ссз1140100 0.0 101812
08:00+4сз113691 0.0 101991
11:00+8ююз1126100 0.0 1017766
14:00+12юв1120100 0.0 1012961
17:00+14ююв221695 0.0 10081108
20:00+12юв4625100 0.0 1010249